www.pogodaiklimat.ru
ПОГОДА в Аэропорту Ханга Надима
Время
(UTC), дата
09 19.09
12 19.09
15 19.09
18 19.09
21 19.09
00 20.09
03 20.09
06 20.09
09 20.09
12 20.09
15 20.09
18 20.09
21 20.09
00 21.09
03 21.09
06 21.09
09 21.09
12 21.09
15 21.09
18 21.09
21 21.09
00 22.09
03 22.09
06 22.09
09 22.09
12 22.09
15 22.09
18 22.09
21 22.09
00 23.09
03 23.09
06 23.09
09 23.09
12 23.09
15 23.09
18 23.09
21 23.09
00 24.09
03 24.09
06 24.09
09 24.09
12 24.09
15 24.09
18 24.09
21 24.09
00 25.09
03 25.09
06 25.09
09 25.09
12 25.09
15 25.09
18 25.09
21 25.09
00 26.09
03 26.09
06 26.09
Ветер
(напр.,м/с)
Видим. Явления Облачность Т
(С)
Тd
(С)
f
(%)
Тe
(С)
Тes
(С)
Комфортность P
(гПа)
Po
(гПа)
Тmin
(С)
Tmax
(С)
R
(мм)
R24
(мм)
S
(см)
ЮЗ 3 10 км 6/3 420 м
[Cu hum Ci sp]
+32.0 +22.1 56 +41 +44 опасность
перегрева
1007.0 1002.5
Ю 2 10 км 9/1 420 м
[Cu med, cong Ci sp]
+28.3 +24.0 78 +39 +39 очень
душно
1009.8 1005.3 +32.8
штиль 0 10 км 9/1 420 м
[Cu med, cong Ci sp]
+26.9 +26.9 100 +42 +42 опасность
перегрева
1011.1 1006.6
штиль 0 10 км 9/1 420 м
[Cu med, cong Ci sp]
+26.8 +26.8 100 +42 +42 опасность
перегрева
1010.7 1006.2
штиль 0 9000 м слаб. дождь 9/1 420 м
[Sc As op Ci sp]
+26.3 +25.6 96 +39 +39 очень
душно
1010.2 1005.7 0.0
ЮВ 3 10 км {гроза, дождь} 9/3 400 м
[Sc Ac As Cs]
+27.3 +25.9 92 +41 +41 опасность
перегрева
1011.3 1006.8 +24.4 0.4
ЮВ 3 10 км 9/4 420 м
[Sc Ac As Cs]
+30.0 +24.3 72 +42 +47 опасность
перегрева
1012.1 1007.6
СВ 3 10 км 9/4 420 м
[Sc diur, vesp Ac As Cs]
+31.0 +24.5 68 +43 +49 опасность
перегрева
1010.6 1006.1
СВ 5 10 км {гроза} 10/4 420 м
[Cu hum Ac trans Ci sp]
+30.1 +24.6 72 +42 +43 опасность
перегрева
1009.0 1004.5
СВ 3 10 км {гроза} 8/3 420 м
[Sc diur, vesp Ac trans Ci sp]
+28.6 +24.6 79 +41 +41 опасность
перегрева
1010.4 1005.9 +32.8
штиль 0 10 км 9/3 420 м
[Sc As trans Cs]
+27.9 +24.9 84 +40 +40 очень
душно
1012.9 1008.4
С 2 10 км 10/1 420 м
[Sc As trans Cs]
+26.4 +24.0 87 +37 +37 очень
душно
1011.8 1007.3
штиль 0 10 км 10/1 420 м
[Sc As trans Cs]
+26.3 +24.3 89 +37 +37 очень
душно
1010.8 1006.3
ЮЗ 2 10 км 9/1 420 м
[Sc Ac As Cs]
+26.2 +24.8 92 +37 +38 очень
душно
1011.9 1007.4 +24.4
Ю 2 6000 м гроза, ливневой дождь 10/5 400 м
[Cb calv Ac As Cs]
+26.6 +25.5 94 +39 +43 очень
душно
1013.1 1008.6 2
ЮВ 4 5000 м слаб. дождь {гроза} 10/6 400 м
[Sc diur, vesp As trans]
+25.2 +24.3 95 +35 +38 очень
душно
1012.6 1008.1 33
В 2 10 км слаб. дождь 10/4 400 м
[Sc diur, vesp As trans]
+25.4 +24.1 93 +35 +37 очень
душно
1011.6 1007.1 3
Ю 2 10 км {дождь} 10/3 400 м
[Sc diur, vesp As trans Cs]
+25.2 +24.2 94 +35 +35 очень
душно
1012.3 1007.8 +30.5 1
ЮЗ 2 9000 м {дождь} 9/3 420 м
[Sc diur, vesp Ac As Cs]
+25.0 +23.4 91 +34 +34 очень
душно
1013.1 1008.6 0.1
штиль 0 9000 м {дождь} 8/4 420 м
[Sc diur, vesp Ac As Cs]
+24.8 +23.2 91 +33 +33 очень
душно
1013.0 1008.5 0.1
штиль 0 9000 м 8/3 420 м
[Sc diur, vesp Ac As Cs]
+24.7 +23.1 91 +33 +33 очень
душно
1012.0 1007.5
ЮЗ 2 10 км 8/4 420 м
[Sc Ac As Ci fib]
+25.6 +24.6 94 +36 +37 очень
душно
1012.5 1008.0 +23.3 38
ЮЗ 3 10 км 9/5 420 м
[Sc Ac trans Ci fib]
+29.0 +24.1 75 +40 +44 очень
душно
1012.8 1008.3
Ю 4 10 км 8/5 420 м
[Cu med, cong Ac trans Ci fib]
+29.7 +24.5 74 +42 +47 опасность
перегрева
1011.0 1006.5
ЮВ 3 10 км {гроза, дождь} 8/4 400 м
[Sc diur, vesp Ac As Cs]
+26.8 +24.5 87 +38 +40 очень
душно
1009.7 1005.2 2
штиль 0 10 км {гроза, дождь} 8/3 420 м
[Sc diur, vesp Ac trans Ci sp]
+27.1 +24.8 87 +39 +39 очень
душно
1011.1 1006.6 +30.9 2
штиль 0 10 км 9/1 420 м
[Sc diur, vesp Ac trans Cs]
+27.0 +24.1 84 +37 +37 очень
душно
1012.6 1008.1
штиль 0 10 км 10/1 420 м
[Sc diur, vesp Ac trans Cs]
+25.6 +24.2 92 +35 +35 очень
душно
1011.5 1007.0
ЮВ 2 10 км 9/1 420 м
[Sc diur, vesp Ac trans Cs]
+26.0 +24.6 92 +37 +37 очень
душно
1011.0 1006.5
штиль 0 10 км 9/1 420 м
[Sc diur, vesp Ac As Cs]
+25.9 +25.3 96 +37 +38 очень
душно
1012.1 1007.6 +23.8 2
ЮВ 3 10 км 6/4 420 м
[Cu med, cong Ac trans Cs]
+30.8 +25.8 75 +46 +53 опасность
перегрева
1012.7 1008.2
ЮВ 2 10 км 8/5 420 м
[Cu hum Ac trans Cs]
+31.5 +23.8 64 +43 +51 опасность
перегрева
1010.8 1006.3
Ю 4 10 км 5/3 420 м
[Cu hum As trans Ci fib]
+30.2 +22.7 64 +40 +42 очень
душно
1010.3 1005.8
ЮВ 2 10 км 8/3 420 м
[Cu hum Ac As Cc]
+28.2 +25.5 85 +41 +41 опасность
перегрева
1011.4 1006.9 +32.2
штиль 0 10 км 8/3 420 м
[Sc diur, vesp Ac trans Cs]
+27.6 +24.9 85 +39 +39 очень
душно
1013.0 1008.5
штиль 0 10 км 8/3 420 м
[Sc diur, vesp Ac trans Cs]
+26.4 +24.5 89 +37 +37 очень
душно
1012.8 1008.3
ЮЗ 2 10 км 8/3 420 м
[Sc Ac As Cs]
+25.7 +24.6 94 +36 +36 очень
душно
1012.0 1007.5
З 3 10 км {дождь} 9/6 420 м
[Sc diur, vesp Ac As Cs]
+24.8 +23.3 91 +33 +33 очень
душно
1014.3 1009.8 +23.5 1
З 4 10 км 6/3 420 м
[Sc Ac As Ci fib]
+28.9 +22.8 70 +38 +44 очень
душно
1014.7 1010.2
Ю 4 10 км 8/3 420 м
[Sc Ac As Ci fib]
+30.6 +23.9 67 +42 +48 опасность
перегрева
1012.6 1008.1
ЮВ 2 10 км 8/3 420 м
[Sc As trans Ci fib]
+30.0 +23.9 70 +41 +44 опасность
перегрева
1011.4 1006.9
В 2 10 км 10/1 420 м
[Sc Cs]
+27.5 +25.4 88 +40 +40 очень
душно
1011.3 1006.8 +30.8
штиль 0 10 км в посл. час дождь 10/1 420 м
[Sc As op Cs]
+26.9 +25.2 90 +39 +39 очень
душно
1012.7 1008.2 0.0
штиль 0 10 км {дождь} 9/1 420 м
[Sc Ac trans Cs]
+26.5 +25.2 93 +38 +38 очень
душно
1012.2 1007.7 0.0
штиль 0 10 км 9/1 420 м
[Sc Ac trans Cs]
+26.5 +25.2 93 +38 +38 очень
душно
1011.3 1006.8
В 1 10 км 9/1 420 м
[Sc Ac trans Cs]
+27.6 +25.1 86 +40 +41 очень
душно
1012.6 1008.1 +23.8 0.0
В 3 10 км 8/3 420 м
[Sc Ac trans Cs]
+30.9 +23.0 63 +41 +48 опасность
перегрева
1012.9 1008.4
Ю 2 9000 м слаб. дождь 9/4 420 м
[Cu med, cong Ac As Cs]
+28.8 +23.0 71 +39 +46 очень
душно
1011.4 1006.9 0.0
ЮВ 4 10 км {дождь} 6/4 420 м
[Cu med, cong Ac trans Ci sp]
+31.0 +22.6 61 +41 +43 опасность
перегрева
1009.0 1004.5 0.0
Ю 5 10 км слаб. дождь 8/5 420 м
[Sc diur, vesp Ac trans Ci sp]
+26.8 +22.7 78 +35 +35 очень
душно
1011.6 1007.1 +32.2 0.0
штиль 0 10 км зарница {дождь} 9/4 420 м
[Cb calv Ac As Cs]
+26.3 +25.3 94 +38 +38 очень
душно
1013.6 1009.1 1
СЗ 3 10 км зарница {дождь} 9/3 420 м
[Sc Ac As Cs]
+24.9 +23.3 91 +33 +33 очень
душно
1012.5 1008.0 1
штиль 0 10 км 9/3 420 м
[Sc Ac As Cs]
+25.2 +23.6 91 +34 +34 очень
душно
1011.5 1007.0
ЮЗ 4 10 км 9/5 420 м
[Sc Ac As Cs]
+25.4 +23.8 91 +35 +35 очень
душно
1012.7 1008.2 +23.8 1
ЮЗ 5 10 км 9/6 420 м
[Cu hum Ac trans Ci fib]
+28.7 +23.2 72 +39 +41 очень
душно
1013.5 1009.0
ЮЗ 5 10 км 10/6 420 м
[Cu hum Ac trans Cs]
+28.4 +23.0 73 +38 +40 очень
душно
1012.0 1007.5
Местоположение метеостанции Аэропорт Ханга Надима (Индонезия): широта 1.12 долгота 104.11 высота над уровнем моря 24 м.
В архиве по умолчанию представлена погода в Аэропорту Ханга Надима за последнюю неделю. Архивные данные за месяц целиком и за предыдущие месяцы, начиная с января 2011 года, Вы можете получить, выбрав интересующий диапазон дат из раскрывающегося списка и нажав кнопку "Найти!".
*Определитесь, кто Вы:
Внимание! Время в таблицах - всемирное. Для получения местного времени необходимо прибавить поправку, которая равна 7 ч.
Смотрите также архив погоды в соседних городах и на ближайших метеорологических станциях:
Партнеры нашего сайта:      
Пояснения к столбцам:
  • Ветер - указаны скорость ветра в м/с - средняя за 10 мин, порывы в срок и между сроками (в фигурных скобках) и направление, откуда дует ветер: С - северный,
  • СВ - северо-восточный, В - восточный, ЮВ - юго-восточный, Ю - южный, ЮЗ - юго-западный, З - западный, СЗ - северо-западный.
  • Видимость - горизонтальная дальность видимости в метрах или километрах. При видимости от 1 до 10 км при отсутствии осадков обычно наблюдается дымка, при ухудшении видимости до 1 км и менее - туман. В сухую погоду видимость может ухудшаться дымом, пылью или мглою.
  • Явления - указаны атмосферные явления, наблюдавшиеся в срок или в последний час перед сроком; фигурными скобками обозначены явления, наблюдавшиеся между сроками (за 1-3 часа до срока); квадратными скобками обозначены град или гололедные отложения с указанием их диаметра в мм.
  • Облачность - указаны через наклонную черту общая и нижняя облачность в баллах и высота нижней границы облаков в метрах; квадратными скобками обозначены формы облаков: Ci - перистые, Cs - перисто-слоистые, Cc - перисто-кучевые, Ac - высококучевые, As - высокослоистые, Sc - слоисто-кучевые, Ns - слоисто-дождевые, Cu - кучевые, Cb - кучево-дождевые. Подробнее классификацию облаков см. в Атласе облаков (PDF).
  • T - Температура воздуха - температура, измеренная на высоте 2 м над землей.
  • Td - Температура точки росы - температура, при понижении до которой содержащийся в воздухе водяной пар достигнет насыщения.
  • f - Относительная влажность воздуха - влажноcть воздуха, измеренная на высоте 2 м над землей.
  • Te - Эффективная температура - температура, которую ощущает одетый по сезону человек в тени. Характеристика душности погоды. При расчете учитывается влияние влажности воздуха и скорости ветра на теплоощущения человека.
  • Tes - Эффективная температура на солнце - температура, которую ощущает человек, с поправкой на солнечный нагрев. Характеристика знойности погоды. Зависит от высоты солнца над горизонтом, облачности и скорости ветра. Ночью, в пасмурную погоду, а также при ветре 12 м/с и более поправка равна нулю.
  • P - Атмосферное давление - приведенное к уровню моря атмосферное давление.
  • Po - Атмосферное давление - измеренное на уровне метеостанции атмосферное давление.
  • Tmin - Минимальная температура - минимум температуры воздуха на высоте 2 м над землей.
  • Tmax - Максимальная температура - максимум температуры воздуха на высоте 2 м над землей.
  • R - Количество осадков - Количество выпавших осадков за период времени, мм. При наведении курсора мыши на число - период времени, за который выпало указанное количество осадков.
  • R24 - Количество осадков - Количество выпавших осадков за 24 часа, мм.
  • S - Снежный покров - Высота снежного покрова, см. При наведении курсора мыши на число - состояние снежного покрова и степень покрытия местности в баллах.